Location: Wieruszow
(51.2830°N, 18.1670°E)
Time: 19:40:40
(UTC+01:00)

ISS - Visible Passes

Search period start: 20 January 2018 00:00
Search period end: 30 January 2018 00:00
Orbit: 402 x 407 km, 51.6° (Epoch: 21 January)

Date Brightness Start Highest point End Pass type
(mag) Time Alt. Az. Time Alt. Az. Time Alt. Az.
26 Jan -1.3 18:55:34 10° SSW 18:56:26 16° SSW 18:56:26 16° SSW visible
27 Jan -2.0 18:03:55 10° S 18:06:14 18° SE 18:06:28 18° SE visible
27 Jan -0.5 19:39:02 10° WSW 19:39:08 11° WSW 19:39:08 11° WSW visible
28 Jan -1.4 17:12:58 10° SSE 17:14:07 11° SE 17:15:16 10° ESE visible
28 Jan -2.6 18:46:50 10° SW 18:49:05 35° SSW 18:49:05 35° SSW visible
29 Jan -2.7 17:54:47 10° SW 17:57:42 31° SSE 17:58:58 23° ESE visible
29 Jan -1.0 19:30:41 10° WSW 19:31:38 18° WSW 19:31:38 18° WSW visible
